Location: Gr�chen
(46.1964°N, 7.8395°E)
Time: 11:08:14
(UTC+00:00)

Daily predictions for brighter satellites

Satellite Brightness Start Highest point End
(mag) Time Altitude Azimuth Time Altitude Azimuth Time Altitude Azimuth
Okean O Rocket 3.4 16:13:13 10° E 16:15:06 13° ENE 16:17:00 10° NNE
USA 267 3.4 16:14:44 10° NE 16:21:19 78° SE 16:27:51 10° SW
H-2A R/B 2.8 16:19:26 10° ESE 16:23:45 28° ENE 16:28:00 10° N
SJ 16-02 3.7 16:21:43 10° NW 16:25:30 29° W 16:29:17 10° SSW
Cosmos 1763 Rocket 3.5 16:22:01 10° S 16:27:01 66° ESE 16:32:06 10° NNE
CZ-4B R/B 2.8 16:23:56 10° SSE 16:27:59 84° ENE 16:31:52 10° NNW
USA 305 4.1 16:25:26 10° WNW 16:29:08 29° N 16:32:46 10° NE
USA 276 3.2 16:26:14 10° WNW 16:29:14 46° SSW 16:32:15 10° SE
Cosmos 1656 4.1 16:25:49 10° NNW 16:31:19 67° WSW 16:36:52 10° SSE
Cosmos 1933 3.7 16:29:16 10° SSE 16:33:08 44° E 16:37:00 10° NNE
Cosmos 841 Rocket 4.2 16:28:57 10° SSE 16:33:33 34° ESE 16:38:09 10° NE
PSLV R/B 4.4 16:30:57 10° SE 16:34:14 31° ENE 16:37:34 10° N
Cosmos 1464 Rocket 4.4 16:28:47 10° SSW 16:35:08 70° W 16:41:31 10° N
USA 229 DEB 4.0 16:28:55 10° NW 16:36:18 86° NE 16:44:08 10° SE
USA 229 4.0 16:29:01 10° NW 16:36:23 86° NE 16:44:13 10° SE
Cosmos 1937 Rocket 3.6 16:32:26 10° NNW 16:37:42 57° ENE 16:42:55 10° SE
Cosmos 1500 Rocket 3.6 16:36:00 10° N 16:40:28 89° E 16:44:53 10° S
Cosmos 1666 4.0 16:37:59 10° NNE 16:40:41 19° ENE 16:43:21 10° ESE
Nadezhda 4 Rocket 4.3 16:35:59 10° N 16:42:19 77° W 16:48:38 10° S
SL-24 R/B - RUBIN 2 3.9 16:38:43 10° NNW 16:43:06 43° NE 16:47:14 10° ESE
ATLAS 2AS CENTAUR R/B 4.4 16:38:07 10° WNW 16:43:53 22° NNW 16:49:28 10° NE
Cosmos 2322 Rocket 3.8 16:41:11 10° N 16:44:15 14° NE 16:45:58 13° ENE
Cosmos 990 Rocket 4.3 16:39:25 10° NNW 16:44:37 71° WSW 16:49:44 10° S
FengYun 1-2 T 4.3 16:40:01 10° SSE 16:45:37 88° WSW 16:51:12 10° NNW
Cosmos 1697 Rocket 2.7 16:41:22 10° NNW 16:47:01 84° ENE 16:52:39 10° SSE
Cosmos 372 Rocket 4.2 16:43:50 10° NNW 16:48:53 46° ENE 16:53:55 10° SE
NOAA 6 4.0 16:43:52 10° SSE 16:49:00 82° ENE 16:54:10 10° NNW
Sich 1 3.1 16:46:00 10° N 16:50:12 52° ENE 16:54:25 10° SSE
Cosmos 1980 Rocket 2.3 16:45:47 10° NNW 16:51:19 50° ENE 16:56:47 10° SE
Cosmos 2221 4.0 16:47:28 10° SW 16:51:28 38° WNW 16:55:31 10° N
Cosmos 1805 Rocket 3.4 16:47:53 10° N 16:52:13 71° E 16:56:32 10° SSE
Cosmos 2369 3.7 16:47:33 10° NNW 16:53:17 65° ENE 16:58:57 10° SE
USA 234 3.3 16:48:24 10° SE 16:54:58 88° NE 17:01:32 10° NW
CZ-4C R/B 3.1 16:50:49 10° NNW 16:57:41 53° NE 17:05:46 10° ESE
Cosmos 1092 Rocket 4.0 16:51:52 10° N 16:58:16 85° E 17:04:36 10° S
Cosmos 1812 3.4 16:56:41 10° SSE 17:00:10 33° E 17:02:42 16° NE
Cosmos 1428 Rocket 4.4 16:54:50 10° N 17:00:59 78° E 17:07:09 10° SSE
USA 306 4.1 16:57:46 10° WNW 17:01:28 28° N 17:03:35 19° NE
SL-16 R/B 3.4 16:58:05 10° N 17:02:27 22° NE 17:04:16 19° ENE
ISS -3.7 16:59:41 10° WNW 17:03:04 61° NNE 17:04:58 23° E
Meteor 1-25 Rocket 4.4 16:58:22 10° NNW 17:03:57 75° W 17:09:31 10° S
deb Chang Zheng 4 4.0 17:00:31 10° SE 17:04:30 38° ENE 17:08:30 10° N
SMAP 3.4 17:00:25 10° S 17:05:02 70° WSW 17:09:43 10° NNW
MOS 1-B Rocket 4.2 16:59:27 10° NNE 17:05:15 53° E 17:11:49 10° S
NOSS 2-2 (D) 4.3 17:00:14 10° NW 17:05:23 71° NE 17:12:36 10° SE
NOSS 2-2 (E) 4.4 17:00:24 10° NW 17:05:44 84° NE 17:13:16 10° SE
Cosmos 2082 Rocket 2.3 17:00:31 10° S 17:06:01 54° ESE 17:10:43 14° NE
Cosmos 1939 Rocket 3.6 17:02:16 10° S 17:06:19 57° W 17:10:22 10° NNW
CORIOLIS 4.3 17:02:35 10° S 17:07:59 79° WSW 17:13:26 10° NNW
Cosmos 44 Rocket 4.0 17:08:06 10° NNW 17:12:33 32° NE 17:14:23 24° E
CZ-4B DEB 4.3 17:08:49 10° SSE 17:14:20 81° WSW 17:19:52 10° NNW
Meteor 2-16 Rocket 4.5 17:08:48 10° N 17:14:50 57° ENE 17:20:51 10° SSE
Cosmos 2278 3.7 17:11:41 10° NNW 17:17:21 58° ENE 17:22:56 10° SE
Cosmos 1602 4.4 17:13:35 10° NNW 17:17:23 57° W 17:21:10 10° S
Cosmos 2142 Rocket 4.5 17:12:09 10° S 17:18:09 60° E 17:24:17 10° NNE
USA 307 4.1 17:16:35 10° WNW 17:20:20 29° N 17:21:38 24° NE
Cosmos 540 Rocket 3.6 17:15:55 10° SSW 17:21:00 74° WNW 17:26:07 10° NNE
ARGOS 3.2 17:19:14 10° SSE 17:24:30 56° ENE 17:29:48 10° N
Cosmos 1570 Rocket 4.1 17:20:38 10° S 17:25:41 51° ESE 17:28:35 24° NE
Cosmos 2279 Rocket 3.9 17:19:37 10° S 17:25:44 65° E 17:31:53 10° NNE
COSMO-SKYMED 1 2.6 17:23:24 19° NNE 17:26:19 54° E 17:30:34 10° S
COSMOS 2406 3.5 17:21:04 10° SW 17:26:47 68° WNW 17:32:09 12° NNE
Cosmos 1833 Rocket 3.4 17:22:42 10° SW 17:28:09 52° WNW 17:33:41 10° NNE
Cosmos 1782 3.2 17:25:17 10° SSW 17:29:14 63° W 17:33:13 10° N
Cosmos 2266 Rocket 4.4 17:24:09 10° N 17:30:10 41° ENE 17:36:11 10° SE
Cosmos 1814 Rocket 3.9 17:25:21 10° S 17:30:31 65° ESE 17:33:44 23° NNE
ATLAS 5 CENTAUR R/B 2.6 17:25:54 10° NW 17:32:38 37° NNE 17:33:08 35° NE
Cosmos 921 Rocket 4.1 17:30:05 10° SSE 17:32:43 26° SE 17:32:43 26° SE
Helios 1B 4.5 17:32:06 23° NNE 17:34:43 65° ESE 17:39:01 10° S
Cosmos 1633 Rocket 2.9 17:31:01 10° N 17:35:24 72° E 17:39:47 10° SSE
Cosmos 1818 3.7 17:31:22 10° NNW 17:36:44 50° NE 17:38:50 33° ESE
YAOGAN 1 4.3 17:39:35 18° NNE 17:39:35 18° NNE 17:40:56 10° N
Cosmos 2219 Rocket 4.3 17:36:15 10° NNE 17:36:27 10° NNE 17:36:27 10° NNE
GEOS 3 Rocket 3.9 17:37:58 35° E 17:39:26 44° NE 17:44:21 10° NNW
CZ-2D R/B 4.2 17:36:06 10° S 17:39:49 49° W 17:43:33 10° NNW
Meteor 2-6 Rocket 4.2 17:35:00 10° S 17:40:39 62° E 17:45:14 15° NNE
SJ-11-01 4.2 17:37:44 10° SSE 17:42:28 80° ENE 17:47:14 10° N
Cosmos 1634 Rocket 4.5 17:36:31 10° SSW 17:42:47 64° WNW 17:49:05 10° N
USA 308 3.9 17:39:13 10° NW 17:43:01 30° N 17:43:13 30° NNE
COSMOS 2455 3.0 17:38:08 10° SW 17:44:09 73° NW 17:48:14 22° NNE
CZ-2C R/B 2.4 17:40:35 10° NNE 17:45:45 83° ESE 17:50:55 10° SSW
CZ-4B R/B 3.2 17:41:17 10° SSE 17:46:42 79° WSW 17:52:05 10° NNW
Cosmos 1151 Rocket 3.1 17:43:55 10° SSW 17:48:14 77° W 17:51:27 18° N
Okean O Rocket 1.6 17:46:21 10° SSE 17:50:48 86° WSW 17:55:17 10° NNW
Lacrosse 5 rocket 1.8 17:47:21 10° NW 17:50:36 42° N 17:50:36 42° N
Meteor 2-15 4.3 17:52:00 10° S 17:58:04 71° E 18:03:28 13° NNE
Cosmos 2208 Rocket 3.9 17:54:18 10° SSW 17:59:40 80° ESE 18:01:39 41° NNE
Cosmos 1666 Rocket 4.4 17:56:52 10° NNW 18:01:11 50° W 18:05:26 10° SSW
Meteor 1-10 Rocket 4.1 17:56:47 10° S 18:02:32 69° E 18:04:53 36° NNE
H-2A R/B 3.2 17:58:06 10° S 18:03:01 42° W 18:07:49 10° NNW
Meteor 1-11 Rocket 3.7 17:57:52 10° N 18:03:26 60° ENE 18:05:46 34° SE
USA 267 3.9 18:01:03 29° NE 18:04:05 47° NNW 18:10:16 10° W
Cosmos 1470 Rocket 3.4 18:00:01 10° N 18:04:29 85° E 18:08:58 10° S
Cosmos 2150 Rocket 3.9 17:59:40 10° NNW 18:04:48 63° ENE 18:04:48 63° ENE
Cosmos 1328 Rocket 3.7 18:01:20 10° SSW 18:05:46 72° W 18:07:30 36° N
Cosmos 1655 Rocket 3.9 18:00:12 10° N 18:06:38 78° E 18:13:00 10° SSE
Landsat 5 3.4 18:08:41 74° NW 18:08:49 75° WNW 18:12:48 10° SSW
Cosmos 2360 Rocket 3.6 18:04:25 10° N 18:07:10 23° NNE 18:07:10 23° NNE
USA 305 4.1 18:05:51 10° NW 18:08:46 31° NNW 18:08:46 31° NNW
SKYMED 2 4.4 18:12:00 24° N 18:14:22 48° WNW 18:18:32 10° SW
Feng Yun 1-1 Rocket 4.3 18:10:11 10° SSE 18:16:08 85° WSW 18:22:02 10° NNW
Cosmos 1666 4.4 18:12:57 10° NNW 18:16:17 31° W 18:19:35 10° SSW
ATLAS CENTAUR R/B 3.3 18:13:16 10° W 18:20:03 35° NW 18:20:43 33° NNW
Cosmos 1125 Rocket 3.5 18:17:40 10° NNW 18:22:14 67° N 18:22:14 67° N
Cosmos 2322 Rocket 2.8 18:23:51 10° NNW 18:27:48 43° N 18:27:48 43° N
Cosmos 1980 Rocket 4.1 18:30:19 10° NW 18:35:00 27° WSW 18:39:40 10° SSW
ATLAS 2AS CENTAUR R/B 4.2 18:31:59 10° NW 18:37:27 22° NNE 18:37:27 22° NNE
ISS -0.8 18:36:47 10° W 18:37:59 17° W 18:37:59 17° W
CZ-4C R/B 3.8 18:39:22 10° NW 18:46:29 50° WSW 18:54:35 10° S
SL-16 R/B 2.5 18:41:31 10° NNW 18:46:11 60° NW 18:46:11 60° NW
Cosmos 2082 Rocket 3.9 18:45:33 10° WSW 18:50:25 29° NW 18:52:35 22° NNW
Cosmos 2333 Rocket 4.4 18:53:20 10° NNW 18:54:27 15° N 18:54:27 15° N
